Overview Statistics Trail Chart Weather Telemetry Raw packets
 

This is the latest recevied weather packets stored in our database for station/object K5IDL. If no packets are shown the sender has not sent any weather packets the latest 10 day(s).

<< 83 84 85 86 87 88 89 >>
Time Temp. Humidity Pressure Rain* Wind** Luminosity Snow
1788093464 27.78° C 65% 1017.3 hPa 0 mm - 23 W/m² -
1788093160 26.67° C 67% 1017.4 hPa 0 mm - 19 W/m² -
1788092858 26.11° C 68% 1017.4 hPa 0 mm - 14 W/m² -
1788092553 26.11° C 68% 1017.2 hPa 0 mm - 10 W/m² -
1788092248 26.11° C 68% 1017 hPa 0 mm - 8 W/m² -
1788091947 26.11° C 68% 1016.8 hPa 0 mm - 5 W/m² -
1788091642 26.11° C 68% 1016.9 hPa 0 mm - 4 W/m² -
1788091339 26.67° C 67% 1016.9 hPa 0 mm - 2 W/m² -
1788091035 26.67° C 67% 1016.6 hPa 0 mm - 1 W/m² -
1788090730 26.67° C 67% 1016.7 hPa 0 mm - 1 W/m² -
1788090427 26.67° C 67% 1016.6 hPa 0 mm - 0 W/m² -
1788090126 26.67° C 66% 1016.6 hPa 0 mm - 0 W/m² -
1788089822 26.67° C 66% 1016.5 hPa 0 mm - 0 W/m² -
1788089522 26.67° C 66% 1016.6 hPa 0 mm - 0 W/m² -
1788089218 26.67° C 65% 1016.4 hPa 0 mm - 0 W/m² -
1788088914 26.67° C 65% 1016.4 hPa 0 mm - 0 W/m² -
1788088610 26.67° C 65% 1016.2 hPa 0 mm - 0 W/m² -
1788088306 26.67° C 64% 1016.2 hPa 0 mm - 0 W/m² -
1788088000 26.67° C 65% 1016.2 hPa 0 mm - 0 W/m² -
1788087696 26.67° C 64% 1016.2 hPa 0 mm - 0 W/m² -
1788087395 26.67° C 63% 1016.1 hPa 0 mm - 0 W/m² -
1788087092 26.67° C 63% 1016 hPa 0 mm - 0 W/m² -
1788086788 26.67° C 63% 1016 hPa 0 mm - 0 W/m² -
1788086490 26.67° C 63% 1016 hPa 0 mm - 0 W/m² -
1788086184 26.67° C 63% 1015.8 hPa 0 mm - 0 W/m² -

* Rain latest hour (hover to see other rain measurements)
** Current wind speed in m/s (hover to see current wind gust speed)